FW0197 Weather Reports


time (UTC)temp
C
wind
direction
speed
KPH
gust
KPH
rain 1hr
cm
rain 24hr
cm
rain mn
cm
humidity
%
barometer
mb
20260510220540 24 98 0.0 0.0 0.00 0.00 0.00 66 1016.9
20260510220054 24 42 1.6 0.0 0.00 0.00 0.00 66 1016.9
20260510215604 24 42 0.0 0.0 0.00 0.00 0.00 67 1016.8
20260510215107 24 42 0.0 0.0 0.00 0.00 0.00 66 1016.9
20260510214532 24 47 0.0 0.0 0.00 0.00 0.00 67 1017.0
20260510214051 24 47 1.6 0.0 0.00 0.00 0.00 67 1016.9
20260510213621 24 53 0.0 0.0 0.00 0.00 0.00 68 1016.9
20260510213101 24 53 1.6 0.0 0.00 0.00 0.00 67 1016.9
20260510212608 24 34 0.0 0.0 0.00 0.00 0.00 68 1016.8
20260510212049 24 86 0.0 0.0 0.00 0.00 0.00 70 1016.7
20260510211555 24 86 0.0 0.0 0.00 0.00 0.00 69 1016.7
20260510211059 24 85 0.0 0.0 0.00 0.00 0.00 70 1016.7
20260510210548 24 85 0.0 0.0 0.00 0.00 0.00 69 1016.7
20260510210056 24 7 4.8 0.0 0.00 0.00 0.00 68 1016.7
20260510205626 24 29 3.2 0.0 0.00 0.00 0.00 70 1016.6
20260510205050 24 7 0.0 0.0 0.00 0.00 0.00 73 1016.8
20260510204552 24 7 0.0 0.0 0.00 0.00 0.00 71 1016.7
20260510204115 24 24 0.0 0.0 0.00 0.00 0.00 72 1016.8
20260510203539 24 24 3.2 0.0 0.00 0.00 0.00 73 1016.8
20260510203055 24 71 1.6 0.0 0.00 0.00 0.00 74 1016.9
20260510202547 24 72 0.0 0.0 0.00 0.00 0.00 72 1016.8
20260510202052 24 0 0.0 0.0 0.00 0.00 0.00 72 1016.8
20260510201558 24 0 0.0 0.0 0.00 0.00 0.00 72 1016.8
20260510201110 24 76 0.0 0.0 0.00 0.00 0.00 71 1016.8
20260510200556 24 75 1.6 0.0 0.00 0.00 0.00 73 1016.9
20260510200045 24 346 0.0 0.0 0.00 0.00 0.00 73 1016.9
20260510195615 24 33 3.2 0.0 0.00 0.00 0.00 73 1017.0
20260510195056 25 0 1.6 0.0 0.00 0.00 0.00 73 1016.9
20260510194542 25 11 3.2 0.0 0.00 0.00 0.00 73 1016.8
20260510194053 25 322 0.0 0.0 0.00 0.00 0.00 74 1016.8
20260510193559 24 0 0.0 0.0 0.00 0.00 0.00 76 1016.8
20260510193113 24 0 0.0 0.0 0.00 0.00 0.00 77 1016.9
20260510192602 24 30 1.6 0.0 0.00 0.00 0.00 75 1017.0
20260510192050 24 54 1.6 0.0 0.00 0.00 0.00 75 1017.1
20260510191554 24 45 1.6 0.0 0.00 0.00 0.00 75 1017.0
20260510191040 24 112 0.0 0.0 0.00 0.00 0.00 75 1017.1
20260510190556 24 6 0.0 0.0 0.00 0.00 0.00 75 1017.0
20260510190039 24 0 0.0 0.0 0.00 0.00 0.00 74 1017.1
20260510185555 25 9 1.6 0.0 0.00 0.00 0.00 72 1017.1
20260510185038 25 0 3.2 0.0 0.00 0.00 0.00 74 1017.2
20260510184558 25 0 4.8 0.0 0.00 0.00 0.00 74 1017.4
20260510184047 25 33 0.0 0.0 0.00 0.00 0.00 78 1017.4
20260510183536 24 99 1.6 0.0 0.00 0.00 0.00 76 1017.5
20260510183055 24 94 0.0 0.0 0.00 0.00 0.00 75 1017.5
20260510182603 24 61 0.0 0.0 0.00 0.00 0.00 75 1017.4
20260510182048 25 86 0.0 0.0 0.00 0.00 0.00 75 1017.6
20260510181555 25 108 0.0 0.0 0.00 0.00 0.00 77 1017.6
20260510181044 24 108 0.0 0.0 0.00 0.00 0.00 77 1017.6
20260510180554 24 343 1.6 0.0 0.00 0.00 0.00 77 1017.6
20260510180055 24 0 0.0 0.0 0.00 0.00 0.00 78 1017.6
20260510175601 24 0 1.6 0.0 0.00 0.00 0.00 77 1017.7
20260510175108 24 56 0.0 0.0 0.00 0.00 0.00 78 1017.7
20260510174548 24 283 0.0 0.0 0.00 0.00 0.00 81 1017.8
20260510174037 23 0 0.0 0.0 0.00 0.00 0.00 79 1017.9
20260510173553 23 37 0.0 0.0 0.00 0.00 0.00 85 1017.9
20260510173057 22 37 1.6 0.0 0.00 0.00 0.00 84 1017.9
20260510172543 22 8 0.0 0.0 0.00 0.00 0.00 84 1017.9
20260510172057 22 8 0.0 0.0 0.00 0.00 0.00 85 1018.1
20260510171558 22 25 3.2 0.0 0.00 0.00 0.00 88 1018.1
20260510171124 22 102 0.0 0.0 0.00 0.00 0.00 90 1018.2
20260510170547 21 102 0.0 0.0 0.00 0.00 0.00 91 1018.2
20260510170038 21 102 0.0 0.0 0.00 0.00 0.00 93 1018.3
20260510165554 21 102 0.0 0.0 0.00 0.00 0.00 94 1018.2
20260510165044 20 102 0.0 0.0 0.00 0.00 0.00 94 1018.3
20260510164536 20 102 0.0 0.0 0.00 0.00 0.00 95 1018.3
20260510164055 20 102 0.0 0.0 0.00 0.00 0.00 95 1018.3
20260510163603 20 102 0.0 0.0 0.00 0.00 0.00 96 1018.5
20260510163112 20 102 1.6 0.0 0.00 0.00 0.00 97 1018.4
20260510162536 19 102 0.0 0.0 0.00 0.00 0.00 97 1018.5
20260510162053 19 11 0.0 0.0 0.00 0.00 0.00 98 1018.5
20260510161536 19 11 0.0 0.0 0.00 0.00 0.00 98 1018.5
20260510161116 19 11 0.0 0.0 0.00 0.00 0.00 99 1018.4
20260510160623 19 11 0.0 0.0 0.00 0.00 0.00 100 1018.4
20260510160050 18 11 0.0 0.0 0.00 0.00 0.00 100 1018.4
20260510155601 18 11 0.0 0.0 0.00 0.00 0.00 100 1018.5
20260510155043 18 11 0.0 0.0 0.00 0.00 0.00 100 1018.5
20260510154624 18 8 0.0 0.0 0.00 0.00 0.00 100 1018.6
20260510154049 18 8 0.0 0.0 0.00 0.00 0.00 100 1018.6
20260510153616 18 8 0.0 0.0 0.00 0.00 0.00 100 1018.4
20260510153059 18 8 0.0 0.0 0.00 0.00 0.00 100 1018.6
20260510152605 18 8 0.0 0.0 0.00 0.00 0.00 100 1018.5
20260510152108 18 8 0.0 0.0 0.00 0.00 0.00 100 1018.6
20260510151551 18 8 0.0 0.0 0.00 0.00 0.00 100 1018.5
20260510151054 18 8 1.6 0.0 0.00 0.00 0.00 100 1018.7
20260510150540 17 8 1.6 0.0 0.00 0.00 0.00 100 1018.5
20260510150054 17 8 0.0 0.0 0.00 0.00 0.00 100 1018.4
20260510145538 17 8 0.0 0.0 0.00 0.00 0.00 100 1018.5
20260510145054 17 8 0.0 0.0 0.00 0.00 0.00 100 1018.4
20260510144619 17 0 0.0 0.0 0.00 0.00 0.00 100 1018.3
20260510144104 17 0 0.0 0.0 0.00 0.00 0.00 100 1018.3
20260510143611 17 43 3.2 0.0 0.00 0.00 0.00 100 1018.2
20260510143037 17 43 0.0 0.0 0.00 0.00 0.00 100 1018.2
20260510142553 17 43 1.6 0.0 0.00 0.00 0.00 100 1018.4
20260510142036 17 43 0.0 0.0 0.00 0.00 0.00 100 1018.3
20260510141554 17 43 0.0 0.0 0.00 0.00 0.00 100 1018.2
20260510141057 17 43 0.0 0.0 0.00 0.00 0.00 100 1018.3
20260510140538 17 43 0.0 0.0 0.00 0.00 0.00 100 1018.2
20260510140049 17 43 0.0 0.0 0.00 0.00 0.00 100 1018.1
20260510135556 17 43 0.0 0.0 0.00 0.00 0.00 100 1018.1
20260510135102 17 43 0.0 0.0 0.00 0.00 0.00 100 1018.1
20260510134550 17 43 0.0 0.0 0.00 0.00 0.00 100 1018.1
20260510134117 17 43 0.0 0.0 0.00 0.00 0.00 100 1018.1
20260510133604 17 60 0.0 0.0 0.00 0.00 0.00 100 1018.1
20260510133049 17 60 0.0 0.0 0.00 0.00 0.00 100 1018.1
20260510132554 17 60 0.0 0.0 0.00 0.00 0.00 100 1018.0
20260510132053 17 60 0.0 0.0 0.00 0.00 0.00 100 1018.1
20260510131603 17 60 0.0 0.0 0.00 0.00 0.00 100 1018.2
20260510131111 17 60 0.0 0.0 0.00 0.00 0.00 100 1018.0
20260510130602 17 60 0.0 0.0 0.00 0.00 0.00 100 1018.0
20260510130109 17 132 0.0 0.0 0.00 0.00 0.00 100 1017.7
20260510125553 17 132 0.0 0.0 0.00 0.00 0.00 100 1017.6
20260510125059 16 132 0.0 0.0 0.00 0.00 0.00 100 1017.6
20260510124550 16 132 0.0 0.0 0.00 0.00 0.00 100 1017.4
20260510124100 16 132 0.0 0.0 0.00 0.00 0.00 100 1017.3
20260510123550 16 132 0.0 0.0 0.00 0.00 0.00 100 1017.3
20260510123059 16 132 0.0 0.0 0.00 0.00 0.00 100 1017.3
20260510122549 16 132 0.0 0.0 0.00 0.00 0.00 100 1017.4
20260510122057 16 132 0.0 0.0 0.00 0.00 0.00 100 1017.4
20260510121550 16 132 0.0 0.0 0.00 0.00 0.00 100 1017.4
20260510121102 16 132 0.0 0.0 0.00 0.00 0.00 100 1017.3
20260510120550 16 132 0.0 0.0 0.00 0.00 0.00 100 1017.3
20260510120036 16 132 0.0 0.0 0.00 0.00 0.00 100 1017.2
20260510115614 16 132 0.0 0.0 0.00 0.00 0.00 100 1017.2
20260510115102 16 132 0.0 0.0 0.00 0.00 0.00 100 1017.0
20260510114608 16 132 0.0 0.0 0.00 0.00 0.00 100 1016.9
20260510114058 16 132 0.0 0.0 0.00 0.00 0.00 100 1016.9
20260510113548 16 132 0.0 0.0 0.00 0.00 0.00 100 1016.8
20260510113056 16 132 0.0 0.0 0.00 0.00 0.00 100 1016.8
20260510112604 16 132 0.0 0.0 0.00 0.00 0.00 100 1016.7
20260510112050 16 132 0.0 0.0 0.00 0.00 0.00 100 1016.5
20260510111602 16 132 0.0 0.0 0.00 0.00 0.00 100 1016.4
20260510111050 16 132 0.0 0.0 0.00 0.00 0.00 100 1016.2
20260510110559 16 132 0.0 0.0 0.00 0.00 0.00 100 1016.1
20260510110124 16 132 0.0 0.0 0.00 0.00 0.00 100 1016.1
20260510105551 16 132 0.0 0.0 0.00 0.00 0.00 100 1015.8
20260510105100 16 132 0.0 0.0 0.00 0.00 0.00 100 1015.7
20260510104609 16 132 0.0 0.0 0.00 0.00 0.00 100 1015.4
20260510104118 16 132 0.0 0.0 0.00 0.00 0.00 100 1015.4
20260510103546 16 132 1.6 0.0 0.00 0.00 0.00 100 1015.4
20260510103116 16 132 0.0 0.0 0.00 0.00 0.00 100 1015.3
20260510102546 16 132 0.0 0.0 0.00 0.00 0.00 100 1015.3
20260510102035 16 132 1.6 0.0 0.00 0.00 0.00 100 1015.1
20260510101553 16 132 0.0 0.0 0.00 0.00 0.00 100 1015.1
20260510101101 16 132 0.0 0.0 0.00 0.00 0.00 100 1015.2
20260510100554 16 132 0.0 0.0 0.00 0.00 0.00 100 1015.1
20260510100045 17 132 0.0 0.0 0.00 0.00 0.00 100 1015.2
20260510095535 17 132 0.0 0.0 0.00 0.00 0.00 100 1015.0
20260510095053 17 132 0.0 0.0 0.00 0.00 0.00 100 1014.8
20260510094602 17 132 0.0 0.0 0.00 0.00 0.00 100 1014.8
20260510094049 17 132 0.0 0.0 0.00 0.00 0.00 100 1014.8
20260510093555 17 132 0.0 0.0 0.00 0.00 0.00 100 1014.8
20260510093052 17 132 0.0 0.0 0.00 0.00 0.00 100 1014.7
20260510092604 17 132 0.0 0.0 0.00 0.00 0.00 100 1014.6
20260510092052 17 132 0.0 0.0 0.00 0.00 0.00 100 1014.6
20260510091558 17 132 0.0 0.0 0.00 0.00 0.00 100 1014.5
20260510091109 17 132 0.0 0.0 0.00 0.00 0.00 100 1014.5
20260510090535 17 132 0.0 0.0 0.00 0.00 0.00 100 1014.5
20260510090052 17 132 0.0 0.0 0.00 0.00 0.00 100 1014.4
20260510085602 17 132 0.0 0.0 0.00 0.00 0.00 100 1014.4
20260510085054 17 132 0.0 0.0 0.00 0.00 0.00 100 1014.3
20260510084602 17 132 0.0 0.0 0.00 0.00 0.00 100 1014.2
20260510084049 17 132 0.0 0.0 0.00 0.00 0.00 100 1014.0
20260510083539 17 132 0.0 0.0 0.00 0.00 0.00 100 1014.1
20260510083119 17 132 0.0 0.0 0.00 0.00 0.00 100 1014.1
20260510082542 17 132 0.0 0.0 0.00 0.00 0.00 100 1014.0
20260510082058 17 132 0.0 0.0 0.00 0.00 0.00 100 1013.9
20260510081606 17 132 0.0 0.0 0.00 0.00 0.00 100 1013.9
20260510081052 17 132 0.0 0.0 0.00 0.00 0.00 100 1013.9
20260510080600 17 132 0.0 0.0 0.00 0.00 0.00 100 1014.0
20260510080030 17 132 0.0 0.0 0.00 0.00 0.00 100 1014.1
20260510075551 17 132 0.0 0.0 0.00 0.00 0.00 100 1014.0
20260510075058 17 132 0.0 0.0 0.00 0.00 0.00 100 1014.0
20260510074548 17 132 0.0 0.0 0.00 0.00 0.00 100 1014.0
20260510074058 17 132 0.0 0.0 0.00 0.00 0.00 100 1013.9
20260510073546 17 132 0.0 0.0 0.00 0.00 0.00 100 1013.8
20260510073052 17 132 0.0 0.0 0.00 0.00 0.00 100 1013.8
20260510072602 17 132 0.0 0.0 0.00 0.00 0.00 100 1013.8
20260510072048 16 132 0.0 0.0 0.00 0.00 0.00 99 1013.8
20260510071556 16 132 0.0 0.0 0.00 0.00 0.00 100 1013.9
20260510071103 16 132 0.0 0.0 0.00 0.00 0.00 99 1013.9
20260510070551 16 132 0.0 0.0 0.00 0.00 0.00 99 1014.0
20260510070059 16 132 0.0 0.0 0.00 0.00 0.00 99 1013.9
20260510065550 16 132 0.0 0.0 0.00 0.00 0.00 99 1013.9
20260510065035 16 132 0.0 0.0 0.00 0.00 0.00 99 1013.9
20260510064551 16 132 0.0 0.0 0.00 0.00 0.00 98 1014.1
20260510064102 16 132 0.0 0.0 0.00 0.00 0.00 98 1014.1
20260510063548 16 132 0.0 0.0 0.00 0.00 0.00 98 1014.2
20260510063057 16 132 0.0 0.0 0.00 0.00 0.00 98 1014.3
20260510062547 16 132 0.0 0.0 0.00 0.00 0.00 98 1014.3
20260510062056 16 132 0.0 0.0 0.00 0.00 0.00 98 1014.3
20260510061548 16 132 0.0 0.0 0.00 0.00 0.00 98 1014.4
20260510061054 16 132 0.0 0.0 0.00 0.00 0.00 98 1014.3
20260510060602 16 132 0.0 0.0 0.00 0.00 0.00 98 1014.3
20260510060048 16 132 0.0 0.0 0.00 0.00 0.00 98 1014.3
20260510055535 16 132 0.0 0.0 0.00 0.00 0.00 98 1014.5
20260510055052 16 132 0.0 0.0 0.00 0.00 0.00 98 1014.6
20260510054600 16 132 0.0 0.0 0.00 0.00 0.00 98 1014.5
20260510054050 16 132 0.0 0.0 0.00 0.00 0.00 98 1014.5
20260510053557 16 132 0.0 0.0 0.00 0.00 0.00 98 1014.6
20260510053048 16 132 0.0 0.0 0.00 0.00 0.00 98 1014.7
20260510052537 16 132 0.0 0.0 0.00 0.00 0.00 97 1014.6
20260510052051 16 132 0.0 0.0 0.00 0.00 0.00 98 1014.7
20260510051600 17 132 0.0 0.0 0.00 0.00 0.00 98 1014.5
20260510051049 17 132 0.0 0.0 0.00 0.00 0.00 97 1014.5
20260510050618 17 132 0.0 0.0 0.00 0.00 0.00 97 1014.5
20260510050118 17 132 0.0 0.0 0.00 0.00 0.00 97 1014.5
20260510045545 17 132 0.0 0.0 0.00 0.00 0.18 97 1014.6
20260510045056 17 132 0.0 0.0 0.00 0.00 0.18 97 1014.6
20260510044601 17 132 0.0 0.0 0.00 0.00 0.18 97 1014.7
20260510044045 17 132 0.0 0.0 0.00 0.00 0.18 97 1014.8
20260510043553 17 132 0.0 0.0 0.00 0.00 0.18 98 1014.6
20260510043046 17 132 0.0 0.0 0.00 0.00 0.18 98 1014.7
20260510042555 17 132 0.0 0.0 0.00 0.00 0.18 97 1014.6
20260510042101 17 132 0.0 0.0 0.00 0.00 0.18 97 1014.5
20260510041548 17 132 0.0 0.0 0.00 0.00 0.18 97 1014.6
20260510041054 17 132 0.0 0.0 0.00 0.00 0.18 97 1014.8
20260510040605 18 132 0.0 0.0 0.00 0.00 0.18 97 1014.8
20260510040055 18 132 0.0 0.0 0.00 0.00 0.18 97 1014.7
20260510035613 18 132 0.0 0.0 0.00 0.00 0.18 97 1014.8
20260510035100 18 132 0.0 0.0 0.00 0.00 0.18 97 1014.7
20260510034600 18 132 0.0 0.0 0.00 0.00 0.18 97 1014.6
20260510034110 18 132 0.0 0.0 0.00 0.00 0.18 97 1014.9
20260510033615 18 132 0.0 0.0 0.00 0.00 0.18 97 1014.9
20260510033103 18 132 0.0 0.0 0.00 0.00 0.18 97 1015.0
20260510032550 18 132 0.0 0.0 0.00 0.00 0.18 97 1015.0
20260510032034 18 132 0.0 0.0 0.00 0.00 0.18 97 1015.2
20260510031551 18 132 0.0 0.0 0.00 0.00 0.18 97 1015.1
20260510031057 18 132 0.0 0.0 0.00 0.00 0.18 97 1015.0
20260510030550 18 132 0.0 0.0 0.00 0.00 0.18 96 1015.0
20260510030057 18 132 0.0 0.0 0.00 0.00 0.18 97 1014.9
20260510025604 18 132 0.0 0.0 0.00 0.00 0.18 97 1014.6
20260510025051 18 132 0.0 0.0 0.00 0.00 0.18 97 1014.8
20260510024558 18 132 0.0 0.0 0.00 0.00 0.18 96 1014.9
20260510024047 18 132 0.0 0.0 0.00 0.00 0.18 97 1014.9
20260510023536 18 132 0.0 0.0 0.00 0.00 0.18 96 1014.7
20260510023117 18 132 0.0 0.0 0.00 0.00 0.18 96 1014.7
20260510022620 18 132 0.0 0.0 0.00 0.00 0.18 97 1014.7
20260510022112 18 132 0.0 0.0 0.00 0.00 0.18 96 1014.6
20260510021558 18 132 0.0 0.0 0.00 0.00 0.18 96 1014.5
20260510021112 18 132 0.0 0.0 0.00 0.00 0.18 96 1014.4
20260510020543 18 132 0.0 0.0 0.00 0.00 0.18 96 1014.4
20260510020034 19 132 0.0 0.0 0.00 0.00 0.18 96 1014.5
20260510015554 19 132 0.0 0.0 0.00 0.00 0.18 96 1014.3
20260510015119 19 132 0.0 0.0 0.00 0.00 0.18 96 1014.3
20260510014549 19 132 0.0 0.0 0.00 0.00 0.18 96 1014.2
20260510014042 19 132 0.0 0.0 0.00 0.00 0.18 96 1014.0
20260510013615 19 132 0.0 0.0 0.00 0.00 0.18 95 1014.1
20260510013102 19 132 0.0 0.0 0.00 0.00 0.18 95 1014.1
20260510012548 19 132 0.0 0.0 0.00 0.00 0.18 95 1013.8
20260510012057 19 132 0.0 0.0 0.00 0.00 0.18 95 1013.9
20260510011612 19 132 0.0 0.0 0.00 0.00 0.18 95 1013.7
20260510011101 20 132 0.0 0.0 0.00 0.00 0.18 94 1013.5
20260510010548 20 132 0.0 0.0 0.00 0.00 0.18 93 1013.6
20260510010032 20 132 0.0 0.0 0.00 0.00 0.18 94 1013.4
20260510005551 20 132 0.0 0.0 0.00 0.00 0.18 94 1013.3
20260510005039 20 132 0.0 0.0 0.00 0.00 0.18 93 1013.2
20260510004552 20 132 0.0 0.0 0.00 0.00 0.18 93 1013.2
20260510004103 20 132 0.0 0.0 0.00 0.00 0.18 92 1013.2
20260510003549 20 132 0.0 0.0 0.00 0.00 0.18 92 1013.1
20260510003057 20 132 0.0 0.0 0.00 0.00 0.18 92 1013.1
20260510002551 20 132 0.0 0.0 0.00 0.00 0.18 92 1013.2
20260510002058 20 132 0.0 0.0 0.00 0.00 0.18 91 1013.4
20260510001609 20 132 0.0 0.0 0.00 0.00 0.18 91 1013.3
20260510001053 20 132 0.0 0.0 0.00 0.00 0.18 91 1013.2
20260510000600 20 132 0.0 0.0 0.00 0.00 0.18 91 1013.2
20260510000111 20 132 0.0 0.0 0.00 0.00 0.18 90 1013.1
20260509235559 21 132 0.0 0.0 0.00 0.00 0.18 90 1012.9
20260509235108 21 132 0.0 0.0 0.00 0.00 0.18 89 1012.9
20260509234554 21 132 0.0 0.0 0.00 0.00 0.18 89 1013.0
20260509234101 21 132 0.0 0.0 0.00 0.00 0.18 89 1012.8
20260509233550 21 132 0.0 0.0 0.00 0.00 0.18 89 1012.4
20260509233036 21 132 0.0 0.0 0.00 0.00 0.18 88 1012.4
20260509232551 21 132 0.0 0.0 0.00 0.00 0.18 88 1012.3
20260509232043 21 132 0.0 0.0 0.00 0.00 0.18 87 1012.4
20260509231609 21 132 0.0 0.0 0.00 0.00 0.18 87 1012.4
20260509231056 21 132 0.0 0.0 0.00 0.00 0.18 86 1012.6
20260509230547 21 132 0.0 0.0 0.00 0.00 0.18 85 1012.6
20260509230038 22 132 0.0 0.0 0.00 0.00 0.18 85 1012.4
20260509225555 22 132 0.0 0.0 0.00 0.00 0.18 86 1012.4
20260509225102 22 132 0.0 0.0 0.00 0.00 0.18 85 1012.3
20260509224547 22 132 0.0 0.0 0.00 0.00 0.18 85 1012.2
20260509224045 22 132 0.0 0.0 0.00 0.00 0.18 85 1012.1
20260509223534 22 132 0.0 0.0 0.00 0.00 0.18 85 1012.1
20260509223052 22 132 0.0 0.0 0.00 0.00 0.18 84 1012.3
20260509222600 22 132 0.0 0.0 0.00 0.00 0.18 84 1012.2
20260509222047 22 132 0.0 0.0 0.00 0.00 0.18 83 1012.1
20260509221534 22 132 0.0 0.0 0.00 0.00 0.18 82 1012.1
20260509221049 22 132 0.0 0.0 0.00 0.00 0.18 84 1011.9